This demonstration page uses our WeatherBlox Daily Observations layout. Learn more.

Left ArrowRight Arrow

47.50024, -111.30081

Hourly Observations for March 6, 2015

Temp ( °F °C ) Dew Point ( °F °C ) Humidity (%) Winds ( mph kmh ) Pressure ( in mb ) Visibility ( mi km ) Precip ( " mm )
12:53 am 00:53 Clear 32 0 16 -8.9 52 52 SW 12 19 30.18 1022 10 16 0.00 0.00
1:53 am 01:53 Clear 32 0 16 -8.9 52 52 SW 10 17 30.19 1022 10 16 0.00 0.00
2:53 am 02:53 Clear 33 0.6 17 -8.3 52 52 WSW 13 20 30.19 1023 10 16 0.00 0.00
3:53 am 03:53 Clear 35 1.7 17 -8.3 48 48 SW 13 20 30.19 1022 10 16 0.00 0.00
4:53 am 04:53 Clear 36 2.2 17 -8.3 46 46 WSW 14 22 30.19 1023 10 16 0.00 0.00
5:53 am 05:53 Clear 34 1.1 18 -7.8 52 52 SSW 14 22 30.22 1023 10 16 0.00 0.00
6:53 am 06:53 Clear 35 1.7 18 -7.8 50 50 SW 15 24 30.21 1023 10 16 0.00 0.00
7:53 am 07:53 Sunny 41 5 19 -7.2 41 41 SSW 12 19 30.21 1023 10 16 0.00 0.00
8:53 am 08:53 Sunny 47 8.3 18 -7.8 31 31 SW 23 37 30.21 1023 10 16 0.00 0.00
9:53 am 09:53 Sunny 51 10.6 19 -7.2 28 28 SW 25 41 30.19 1023 10 16 0.00 0.00
10:53 am 10:53 Sunny 53 11.7 18 -7.8 25 25 SW 26 43 30.21 1023 10 16 0.00 0.00
11:53 am 11:53 Sunny 55 13 18 -8 23 23 WSW 22 35 30.09 1019 10 16 0.00 0.00
12:53 pm 12:53 Sunny 56 13.3 19 -7.2 24 24 WSW 23 37 30.21 1023 10 16 0.00 0.00
1:53 pm 13:53 Mostly Sunny 59 15 18 -7.8 20 20 W 18 30 30.19 1022 10 16 0.00 0.00
2:53 pm 14:53 Sunny 59 15 17 -8.3 19 19 W 17 28 30.19 1022 10 16 0.00 0.00
3:53 pm 15:53 Sunny 58 14.4 18 -7.8 21 21 W 21 33 30.19 1022 10 16 0.00 0.00
4:53 pm 16:53 Sunny 54 12.2 19 -7.2 25 25 W 14 22 30.21 1023 10 16 0.00 0.00
5:53 pm 17:53 Sunny 43 6.1 20 -6.7 40 40 W 5 7 30.25 1024 10 16 0.00 0.00
6:53 pm 18:53 Clear 43 6.1 20 -6.7 40 40 W 9 15 30.26 1025 10 16 0.00 0.00
7:53 pm 19:53 Mostly Cloudy 39 3.9 21 -6.1 48 48 WSW 8 13 30.27 1025 10 16 0.00 0.00
8:53 pm 20:53 Mostly Cloudy 40 4.4 23 -5 51 51 SW 9 15 30.25 1024 10 16 0.00 0.00
9:53 pm 21:53 Clear 35 1.7 22 -5.6 59 59 SW 9 15 30.27 1025 10 16 0.00 0.00
10:53 pm 22:53 Clear 35 1.7 22 -5.6 59 59 NE 6 9 30.27 1025 10 16 0.00 0.00
11:53 pm 23:53 Clear 33 0.6 22 -5.6 64 64 SE 5 7 30.27 1025 10 16 0.00 0.00

Powered by AerisWeather